Location: Unspecified
(0.0000°N, 0.0000°E)
Time: 17:23:58
(UTC+00:00)

ISS - Pass Details

Date: 19 January 2020
Orbit: 415 x 422 km, 51.6° (Epoch: 23 January)

Event Time Altitude Azimuth Distance (km) Brightness Sun altitude
Exits shadow 04:48:55 68° 331° (NNW) 447 -3.9 -19.1°
Maximum altitude 04:49:18 87° 55° (NE) 417 -3.9 -19.0°
Drops below altitude 10° 04:52:37 10° 144° (SE) 1,484 -0.1 -18.2°
Sets 04:54:43 0° 144° (SE) 2,349 1.0 -17.7°
